ETIHAD-SAT

导读

ETIHAD-SAT(阿提哈德卫星)是阿联酋与韩国合作开发的合成孔径雷达遥感卫星,于2025年3月15日在美国加州范登堡基地由猎鹰9号火箭发射升空,重量220kg,运行于太阳同步轨道。 它搭载先进SAR技术,可全天候提供高分辨率成像,具备点、扫描、条带三种成像模式,服务环境监测、灾害管理、智能农业、海上航行等领域,是阿联酋首颗SAR卫星,标志其太空技术取得重要突破,助力提升本国地球观测能力,推动航天技术本地化发展。

Basic Information
目录编号:
63226
目录名称:
ETIHAD-SAT
国际标识:
2025-052S
轨道中心:
EARTH
卫星名称:
ETIHAD-SAT
卫星全名:
ETIHAD-SAT
卫星状态:
在轨 (已飞行538 天)
发射日期:
2025-03-15 UTC
国别 :
(AE)
星等 :
--
Orbit Information
数据来源 国际轨道数据
星历时间: 2026-09-04T12:01:52+0800
11小时前
查看轨道信息
半长轴: 6876.114km
偏心率: 0.0004014
轨道倾角: 97.384°
近地点辐角 207.532°
升交点赤经 138.379°
平近点角 152.570°
近地点: 495.216km
远地点: 500.738km
周期: 94.575分钟
每日圈数: 15.226085
Detailed Information
使用方式:
暂无
2D Orbit Map
3D Orbit Map
Orbit Altitude Analysis Chart
Orbit Inclination Analysis Chart
Orbit Comprehensive Analysis Chart
View Comprehensive Chart
Conjunction Data List
Event ID Objects TCA Miss Dist (km) Collision Risk Probability Collision Risk Index (CRI) Action
CDM_260904-180006-322606-435921
2026-09-04T
18:00:29+0000
2.427 km
极远距离
1.867194E-6 低风险 0.4
CDM_260907-035204-939306-322621
2026-09-07T
03:52:46+0000
2.832 km
极远距离
1.050494E-6 低风险 0.35